OE3AOG Weather Reports


time (UTC)temp
F
wind
direction
speed
knots
gust
knots
rain 1hr
in
rain 24hr
in
rain mn
in
humidity
%
barometer
mb
20260507211526 53 130 0.9 3.5 0.01 0.45 0.45 89 1014.6
20260507210519 53 136 1.7 3.5 0.02 0.45 0.45 89 1014.6
20260507205526 53 139 1.7 3.5 0.02 0.45 0.45 88 1014.7
20260507204519 53 151 2.6 5.2 0.02 0.45 0.45 88 1014.6
20260507203519 53 169 3.5 7.8 0.02 0.45 0.45 88 1014.6
20260507202519 53 159 2.6 6.1 0.02 0.44 0.44 89 1014.6
20260507201527 53 161 3.5 7.0 0.02 0.44 0.44 90 1014.5
20260507200518 53 162 2.6 6.1 0.03 0.43 0.43 90 1014.4
20260507195527 53 161 2.6 6.1 0.03 0.42 0.42 90 1014.4
20260507194527 53 155 2.6 5.2 0.04 0.42 0.42 90 1014.3
20260507193519 53 162 2.6 5.2 0.05 0.42 0.42 89 1014.3
20260507192528 53 163 2.6 5.2 0.05 0.42 0.42 90 1014.3
20260507191519 53 176 3.5 5.2 0.06 0.41 0.41 89 1014.2
20260507190526 53 176 2.6 7.0 0.07 0.40 0.40 90 1014.2
20260507185518 53 167 2.6 4.3 0.08 0.39 0.39 91 1014.0
20260507184526 53 158 1.7 4.3 0.09 0.38 0.38 91 1013.7
20260507183519 53 138 0.9 3.5 0.11 0.37 0.37 91 1013.5
20260507182527 53 145 1.7 4.3 0.14 0.36 0.36 91 1013.6
20260507181527 53 140 0.9 2.6 0.15 0.35 0.35 90 1013.4
20260507180519 53 136 0.9 2.6 0.14 0.33 0.33 91 1013.3
20260507175527 53 123 0.9 2.6 0.15 0.32 0.32 91 1013.4
20260507174519 53 154 0.9 2.6 0.16 0.29 0.29 90 1013.5
20260507173526 54 166 2.6 7.8 0.14 0.26 0.26 90 1013.3
20260507172518 54 178 4.3 10.4 0.11 0.22 0.22 88 1013.5
20260507171527 55 173 4.3 8.7 0.09 0.21 0.21 85 1013.2
20260507170527 55 170 3.5 9.6 0.07 0.19 0.19 87 1012.9
20260507165527 55 159 1.7 5.2 0.05 0.17 0.17 87 1013.0
20260507164518 55 160 1.7 5.2 0.04 0.14 0.14 86 1012.8
20260507163526 56 162 2.6 5.2 0.04 0.12 0.12 87 1012.5
20260507162520 56 149 1.7 4.3 0.06 0.12 0.12 87 1012.4
20260507161527 55 163 1.7 4.3 0.09 0.12 0.12 87 1012.4
20260507160519 56 172 0.9 4.3 0.09 0.12 0.12 87 1012.2
20260507155528 56 189 1.7 3.5 0.09 0.11 0.11 87 1012.2
20260507154519 56 212 0.9 4.3 0.08 0.10 0.10 85 1012.2
20260507153527 56 181 0.0 3.5 0.05 0.08 0.08 83 1012.2
20260507152519 58 270 0.9 3.5 0.03 0.05 0.05 77 1011.9
20260507151527 60 312 0.9 3.5 0.00 0.03 0.03 68 1011.9
20260507150519 61 157 0.0 1.7 0.00 0.03 0.03 64 1011.7
20260507145528 62 190 0.9 2.6 0.00 0.03 0.03 62 1011.6
20260507144527 62 157 1.7 4.3 0.00 0.03 0.03 60 1011.5
20260507143519 62 146 0.9 2.6 0.00 0.03 0.03 59 1011.5
20260507142527 62 143 2.6 5.2 0.00 0.03 0.03 59 1011.5
20260507141520 63 144 1.7 3.5 0.00 0.03 0.03 59 1011.6
20260507140528 63 142 2.6 5.2 0.00 0.03 0.03 57 1011.5
20260507135527 63 165 3.5 7.0 0.00 0.03 0.03 57 1011.6
20260507134528 63 147 3.5 9.6 0.00 0.03 0.03 59 1011.7
20260507133520 64 148 3.5 7.0 0.00 0.03 0.03 58 1011.7
20260507132527 64 141 3.5 8.7 0.01 0.03 0.03 56 1011.7
20260507131528 63 157 2.6 7.8 0.01 0.03 0.03 59 1011.9
20260507130527 63 139 2.6 6.1 0.02 0.03 0.03 61 1012.0
20260507125519 62 153 2.6 5.2 0.03 0.03 0.03 64 1011.9
20260507124527 61 152 2.6 4.3 0.02 0.02 0.02 67 1011.9
20260507123520 61 151 0.9 3.5 0.02 0.02 0.02 73 1011.9
20260507122520 61 167 1.7 5.2 0.02 0.02 0.02 71 1012.1
20260507121536 63 168 1.7 6.1 0.01 0.01 0.01 63 1012.0
20260507120528 64 170 0.9 3.5 0.01 0.01 0.01 55 1012.0
20260507115520 66 157 0.9 4.3 0.00 0.00 0.00 48 1011.9
20260507114527 66 163 0.0 1.7 0.00 0.00 0.00 45 1011.9
20260507113519 67 212 0.9 2.6 0.00 0.00 0.00 44 1011.9
20260507112527 67 209 0.9 2.6 0.00 0.00 0.00 45 1012.0
20260507111520 66 0.0 1.7 0.00 0.00 0.00 46 1012.0
20260507110528 65 260 0.0 1.7 0.00 0.00 0.00 47 1012.0
20260507105519 65 358 0.0 1.7 0.00 0.00 0.00 46 1012.0
20260507104527 65 355 0.0 2.6 0.00 0.00 0.00 47 1012.0
20260507103519 65 1 0.9 3.5 0.00 0.00 0.00 47 1012.1
20260507102528 65 154 0.9 2.6 0.00 0.00 0.00 45 1012.3
20260507101519 66 72 0.0 1.7 0.00 0.00 0.00 45 1012.3
20260507100527 65 357 0.0 4.3 0.00 0.00 0.00 46 1012.2
20260507095528 64 27 1.7 3.5 0.00 0.00 0.00 47 1012.2
20260507094520 64 315 0.9 3.5 0.00 0.00 0.00 47 1012.1
20260507093528 65 338 0.9 3.5 0.00 0.00 0.00 45 1012.0
20260507092519 64 11 0.9 2.6 0.00 0.00 0.00 47 1012.0
20260507091527 64 335 0.9 4.3 0.00 0.00 0.00 47 1012.0
20260507090519 64 350 0.9 3.5 0.00 0.00 0.00 47 1011.9
20260507085520 65 350 0.9 3.5 0.00 0.00 0.00 46 1011.7
20260507084528 64 338 0.9 2.6 0.00 0.00 0.00 47 1011.6
20260507083520 64 352 0.9 2.6 0.00 0.00 0.00 45 1011.5
20260507082527 64 236 0.9 2.6 0.00 0.00 0.00 45 1011.4
20260507081536 64 12 0.0 1.7 0.00 0.00 0.00 45 1011.2
20260507080528 64 330 0.9 2.6 0.00 0.00 0.00 46 1011.1
20260507075520 64 333 0.9 2.6 0.00 0.00 0.00 47 1011.0
20260507074528 63 157 0.9 3.5 0.00 0.00 0.00 49 1011.1
20260507073519 62 99 0.9 2.6 0.00 0.00 0.00 50 1011.0
20260507072528 62 128 0.9 3.5 0.00 0.00 0.00 50 1011.0
20260507071519 62 208 0.9 2.6 0.00 0.00 0.00 50 1010.8
20260507070527 61 195 0.9 6.1 0.00 0.00 0.00 50 1010.6
20260507065520 60 40 0.9 3.5 0.00 0.00 0.00 51 1010.6
20260507064528 60 282 0.9 3.5 0.00 0.00 0.00 51 1010.7
20260507063520 60 345 0.9 3.5 0.00 0.00 0.00 52 1010.6
20260507062520 60 194 1.7 3.5 0.00 0.00 0.00 52 1010.4
20260507061520 60 252 0.9 3.5 0.00 0.00 0.00 52 1010.4
20260507060528 60 193 0.9 3.5 0.00 0.00 0.00 52 1010.4
20260507055520 60 349 1.7 5.2 0.00 0.00 0.00 52 1010.1
20260507054527 60 25 1.7 4.3 0.00 0.00 0.00 53 1010.1
20260507053520 60 152 0.9 3.5 0.00 0.00 0.00 54 1009.9
20260507052528 60 358 0.9 2.6 0.00 0.00 0.00 55 1009.8
20260507051527 60 348 0.9 3.5 0.00 0.00 0.00 55 1009.7
20260507050529 60 8 0.9 2.6 0.00 0.00 0.00 54 1009.6
20260507045520 60 288 0.9 2.6 0.00 0.00 0.00 54 1009.4
20260507044528 59 202 0.9 2.6 0.00 0.00 0.00 56 1009.1
20260507043521 59 161 1.7 3.5 0.00 0.00 0.00 56 1008.9
20260507042528 59 242 0.9 2.6 0.00 0.00 0.00 57 1008.9
20260507041520 59 327 1.7 3.5 0.00 0.00 0.00 57 1008.8
20260507040528 59 272 1.7 3.5 0.00 0.00 0.00 58 1008.6
20260507035536 59 2 1.7 3.5 0.00 0.00 0.00 57 1008.4
20260507034520 60 37 1.7 4.3 0.00 0.00 0.00 57 1008.5
20260507033528 60 154 1.7 2.6 0.00 0.00 0.00 56 1008.4
20260507032520 60 324 0.9 3.5 0.00 0.00 0.00 56 1008.4
20260507031528 59 296 1.7 2.6 0.00 0.00 0.00 58 1008.4
20260507030521 59 184 1.7 3.5 0.00 0.00 0.00 58 1008.2
20260507025528 59 12 0.9 3.5 0.00 0.00 0.00 58 1008.2
20260507024520 60 315 0.9 3.5 0.00 0.00 0.00 58 1008.1
20260507023528 60 321 1.7 5.2 0.00 0.00 0.00 57 1008.2
20260507022520 60 222 1.7 3.5 0.00 0.00 0.00 57 1008.1
20260507021519 60 332 0.9 3.5 0.00 0.00 0.00 57 1008.1
20260507020521 60 301 1.7 4.3 0.00 0.00 0.00 57 1008.0
20260507015528 60 249 0.9 3.5 0.00 0.00 0.00 56 1008.1
20260507014520 60 320 0.9 3.5 0.00 0.00 0.00 56 1008.1
20260507013528 60 300 0.9 4.3 0.00 0.00 0.00 56 1007.9
20260507012520 60 311 1.7 5.2 0.00 0.00 0.00 55 1007.8
20260507011528 60 312 1.7 5.2 0.00 0.00 0.00 56 1008.0
20260507010520 61 306 0.9 4.3 0.00 0.00 0.00 56 1007.7
20260507005521 61 318 1.7 3.5 0.00 0.00 0.00 56 1007.7
20260507004529 61 336 1.7 3.5 0.00 0.00 0.00 56 1007.7
20260507003521 61 327 0.9 6.1 0.00 0.00 0.00 56 1007.6
20260507002529 61 303 2.6 5.2 0.00 0.00 0.00 57 1007.6
20260507001521 61 317 1.7 4.3 0.00 0.00 0.00 58 1007.5
20260507000529 61 327 1.7 5.2 0.00 0.00 0.00 60 1007.4
20260506235529 61 320 1.7 3.5 0.00 0.00 0.00 62 1007.3
20260506234521 61 309 1.7 5.2 0.00 0.00 0.00 63 1007.2
20260506233529 61 319 0.9 3.5 0.00 0.00 0.00 63 1007.0
20260506232521 61 333 0.9 3.5 0.00 0.00 0.00 63 1006.9
20260506231529 60 45 0.9 1.7 0.00 0.00 0.00 62 1006.9
20260506230520 59 71 0.9 2.6 0.00 0.00 0.00 65 1006.8
20260506225529 59 130 0.9 2.6 0.00 0.00 0.00 65 1006.8
20260506224530 59 67 1.7 3.5 0.00 0.00 0.00 64 1006.6
20260506223521 60 80 0.9 1.7 0.00 0.00 0.00 63 1006.3
20260506222529 59 55 0.9 3.5 0.00 0.00 0.00 63 1006.1
20260506221521 61 9 0.9 1.7 0.00 0.00 0.00 62 1005.9
20260506220528 62 96 0.9 2.6 0.00 0.00 0.00 59 1005.6
20260506215529 62 159 2.6 4.3 0.00 0.00 0.00 59 1005.5
20260506214521 63 137 0.9 1.7 0.00 0.00 0.00 58 1005.2
20260506213529 63 157 2.6 6.1 0.00 0.00 0.00 57 1005.2
20260506212520 63 164 3.5 6.1 0.00 0.00 0.00 58 1004.9